| time (UTC) | temp F | wind direction | speed MPH | gust MPH | rain 1hr in | rain 24hr in | rain mn in | humidity % | barometer mb |
| 20260505111150 | 78 | 107 | 1.0 | 1.0 | 0.00 | 0.15 | 0.15 | 97 | 1008.0 |
| 20260505110646 | 78 | 133 | 1.0 | 2.0 | 0.00 | 0.15 | 0.15 | 97 | 1008.0 |
| 20260505110144 | 78 | 148 | 4.0 | 4.0 | 0.00 | 0.15 | 0.15 | 96 | 1007.7 |
| 20260505102120 | 82 | 107 | 1.0 | 1.0 | 0.00 | 0.15 | 0.15 | 98 | 1006.5 |
| 20260505101618 | 82 | 124 | 2.0 | 2.0 | 0.07 | 0.15 | 0.15 | 98 | 1006.5 |
| 20260505101114 | 82 | 97 | 0.0 | 0.0 | 0.31 | 0.15 | 0.15 | 97 | 1006.2 |
| 20260505100610 | 82 | 110 | 1.0 | 1.0 | 0.83 | 0.14 | 0.14 | 90 | 1006.3 |
| 20260505100107 | 84 | 90 | 2.0 | 3.0 | 0.59 | 0.10 | 0.10 | 91 | 1006.7 |
| 20260505095603 | 86 | 95 | 0.0 | 1.0 | 0.05 | 0.01 | 0.01 | 86 | 1006.5 |
| 20260505095100 | 88 | 320 | 4.0 | 4.0 | 0.00 | 0.00 | 0.00 | 81 | 1006.2 |
| 20260505094556 | 88 | 103 | 0.0 | 1.0 | 0.00 | 0.00 | 0.00 | 76 | 1006.3 |
| 20260505094053 | 88 | 336 | 4.0 | 6.0 | 0.00 | 0.00 | 0.00 | 80 | 1006.3 |
| 20260505093549 | 90 | 36 | 2.0 | 3.0 | 0.00 | 0.00 | 0.00 | 79 | 1006.0 |
| 20260505093047 | 89 | 99 | 1.0 | 2.0 | 0.00 | 0.00 | 0.00 | 78 | 1006.2 |
| 20260505092544 | 90 | 262 | 4.0 | 6.0 | 0.00 | 0.00 | 0.00 | 77 | 1005.8 |
| 20260505092042 | 89 | 265 | 4.0 | 8.0 | 0.00 | 0.00 | 0.00 | 78 | 1005.9 |
| 20260505091539 | 89 | 10 | 2.0 | 2.0 | 0.00 | 0.00 | 0.00 | 78 | 1006.0 |
| 20260505091037 | 90 | 121 | 1.0 | 1.0 | 0.00 | 0.00 | 0.00 | 79 | 1005.9 |
| 20260505090535 | 91 | 3 | 2.0 | 3.0 | 0.00 | 0.00 | 0.00 | 76 | 1005.9 |
| 20260505090033 | 91 | 333 | 3.0 | 7.0 | 0.00 | 0.00 | 0.00 | 75 | 1006.3 |
| 20260505085530 | 90 | 130 | 1.0 | 2.0 | 0.00 | 0.00 | 0.00 | 75 | 1006.0 |
| 20260505085028 | 90 | 74 | 2.0 | 3.0 | 0.00 | 0.00 | 0.00 | 75 | 1006.1 |
| 20260505084526 | 91 | 146 | 3.0 | 4.0 | 0.00 | 0.00 | 0.00 | 74 | 1006.3 |
| 20260505084024 | 92 | 97 | 1.0 | 2.0 | 0.00 | 0.00 | 0.00 | 72 | 1006.1 |
| 20260505083521 | 93 | 209 | 4.0 | 6.0 | 0.00 | 0.00 | 0.00 | 71 | 1006.1 |
| 20260505083017 | 94 | 51 | 3.0 | 3.0 | 0.00 | 0.00 | 0.00 | 68 | 1005.7 |
| 20260505082513 | 94 | 244 | 2.0 | 2.0 | 0.00 | 0.00 | 0.00 | 67 | 1005.8 |
| 20260505082010 | 96 | 76 | 2.0 | 2.0 | 0.00 | 0.00 | 0.00 | 66 | 1005.8 |
| 20260505081506 | 95 | 316 | 2.0 | 2.0 | 0.00 | 0.00 | 0.00 | 66 | 1005.7 |
| 20260505081003 | 95 | 235 | 3.0 | 3.0 | 0.00 | 0.00 | 0.00 | 65 | 1006.0 |
| 20260505080500 | 95 | 166 | 2.0 | 2.0 | 0.00 | 0.00 | 0.00 | 66 | 1006.3 |
| 20260505075955 | 95 | 208 | 2.0 | 3.0 | 0.00 | 0.00 | 0.00 | 65 | 1006.4 |
| 20260505075452 | 95 | 34 | 2.0 | 6.0 | 0.00 | 0.00 | 0.00 | 67 | 1006.4 |
| 20260505074949 | 94 | 283 | 1.0 | 2.0 | 0.00 | 0.00 | 0.00 | 67 | 1006.6 |
| 20260505074447 | 95 | 240 | 1.0 | 1.0 | 0.00 | 0.00 | 0.00 | 62 | 1006.5 |
| 20260505073944 | 96 | 21 | 2.0 | 2.0 | 0.00 | 0.00 | 0.00 | 65 | 1006.5 |
| 20260505073441 | 93 | 102 | 1.0 | 2.0 | 0.00 | 0.00 | 0.00 | 67 | 1006.6 |
| 20260505072938 | 94 | 338 | 4.0 | 4.0 | 0.00 | 0.00 | 0.00 | 69 | 1007.1 |
| 20260505072434 | 94 | 126 | 2.0 | 3.0 | 0.00 | 0.00 | 0.00 | 71 | 1006.7 |
| 20260505071931 | 94 | 178 | 4.0 | 4.0 | 0.00 | 0.00 | 0.00 | 65 | 1006.6 |
| 20260505071427 | 92 | 280 | 3.0 | 3.0 | 0.00 | 0.00 | 0.00 | 69 | 1007.2 |
| 20260505070925 | 93 | 216 | 1.0 | 2.0 | 0.00 | 0.00 | 0.00 | 69 | 1006.8 |
| 20260505070421 | 93 | 333 | 2.0 | 3.0 | 0.00 | 0.00 | 0.00 | 66 | 1007.0 |
| 20260505065917 | 94 | 202 | 3.0 | 4.0 | 0.00 | 0.00 | 0.00 | 59 | 1007.2 |
| 20260505065414 | 96 | 152 | 2.0 | 2.0 | 0.00 | 0.00 | 0.00 | 58 | 1007.3 |
| 20260505064910 | 96 | 119 | 2.0 | 2.0 | 0.00 | 0.00 | 0.00 | 57 | 1007.2 |
| 20260505064408 | 96 | 48 | 0.0 | 1.0 | 0.00 | 0.00 | 0.00 | 58 | 1007.6 |
| 20260505063906 | 96 | 161 | 1.0 | 2.0 | 0.00 | 0.00 | 0.00 | 54 | 1007.5 |
| 20260505063402 | 96 | 98 | 0.0 | 1.0 | 0.00 | 0.00 | 0.00 | 53 | 1007.6 |
| 20260505062859 | 96 | 162 | 4.0 | 4.0 | 0.00 | 0.00 | 0.00 | 52 | 1007.9 |
| 20260505062356 | 96 | 117 | 2.0 | 2.0 | 0.00 | 0.00 | 0.00 | 52 | 1008.0 |
| 20260505061852 | 96 | 282 | 3.0 | 3.0 | 0.00 | 0.00 | 0.00 | 55 | 1008.0 |
| 20260505061351 | 96 | 86 | 1.0 | 1.0 | 0.00 | 0.00 | 0.00 | 62 | 1008.3 |
| 20260505060848 | 96 | 352 | 3.0 | 4.0 | 0.00 | 0.00 | 0.00 | 62 | 1008.3 |
| 20260505060345 | 95 | 104 | 1.0 | 1.0 | 0.00 | 0.00 | 0.00 | 58 | 1008.5 |
| 20260505055841 | 94 | 104 | 1.0 | 1.0 | 0.00 | 0.00 | 0.00 | 59 | 1008.3 |
| 20260505055337 | 95 | 106 | 2.0 | 2.0 | 0.00 | 0.00 | 0.00 | 55 | 1008.7 |
| 20260505054834 | 95 | 121 | 1.0 | 2.0 | 0.00 | 0.00 | 0.00 | 54 | 1008.7 |
| 20260505054331 | 96 | 79 | 2.0 | 2.0 | 0.00 | 0.00 | 0.00 | 59 | 1009.0 |
| 20260505053830 | 95 | 106 | 0.0 | 0.0 | 0.00 | 0.00 | 0.00 | 56 | 1009.1 |
| 20260505053326 | 96 | 32 | 5.0 | 6.0 | 0.00 | 0.00 | 0.00 | 59 | 1008.9 |
| 20260505052823 | 95 | 167 | 1.0 | 1.0 | 0.00 | 0.00 | 0.00 | 59 | 1009.0 |
| 20260505052320 | 94 | 110 | 1.0 | 1.0 | 0.00 | 0.00 | 0.00 | 62 | 1009.1 |
| 20260505051817 | 95 | 119 | 4.0 | 4.0 | 0.00 | 0.00 | 0.00 | 59 | 1009.2 |
| 20260505051314 | 94 | 101 | 0.0 | 1.0 | 0.00 | 0.00 | 0.00 | 66 | 1009.3 |
| 20260505050812 | 92 | 91 | 0.0 | 1.0 | 0.00 | 0.00 | 0.00 | 67 | 1009.2 |
| 20260505050311 | 93 | 73 | 1.0 | 1.0 | 0.00 | 0.00 | 0.00 | 68 | 1009.3 |
| 20260505041740 | 92 | 50 | 3.0 | 3.0 | 0.00 | 0.00 | 0.00 | 76 | 1010.0 |
| 20260505041237 | 91 | 94 | 0.0 | 0.0 | 0.00 | 0.00 | 0.00 | 75 | 1009.9 |
| 20260505040735 | 91 | 11 | 2.0 | 2.0 | 0.00 | 0.00 | 0.00 | 74 | 1010.1 |
| 20260505040232 | 89 | 144 | 3.0 | 4.0 | 0.00 | 0.00 | 0.00 | 79 | 1010.2 |
| 20260505035729 | 89 | 47 | 3.0 | 3.0 | 0.00 | 0.00 | 0.00 | 77 | 1010.1 |
| 20260505035225 | 91 | 47 | 4.0 | 6.0 | 0.00 | 0.00 | 0.00 | 75 | 1010.2 |
| 20260505034722 | 90 | 71 | 1.0 | 1.0 | 0.00 | 0.00 | 0.00 | 75 | 1010.5 |
| 20260505034219 | 88 | 93 | 0.0 | 0.0 | 0.00 | 0.00 | 0.00 | 77 | 1010.4 |
| 20260505033715 | 87 | 338 | 4.0 | 4.0 | 0.00 | 0.00 | 0.00 | 81 | 1010.6 |
| 20260505033213 | 88 | 44 | 2.0 | 3.0 | 0.00 | 0.00 | 0.00 | 83 | 1010.4 |
| 20260505032711 | 88 | 124 | 2.0 | 3.0 | 0.00 | 0.00 | 0.00 | 81 | 1010.8 |
| 20260505032207 | 88 | 54 | 3.0 | 3.0 | 0.00 | 0.00 | 0.00 | 85 | 1010.7 |
| 20260505031704 | 88 | 82 | 2.0 | 2.0 | 0.00 | 0.00 | 0.00 | 84 | 1010.8 |
| 20260505031200 | 89 | 301 | 3.0 | 3.0 | 0.00 | 0.00 | 0.00 | 78 | 1010.7 |
| 20260505030657 | 88 | 32 | 2.0 | 3.0 | 0.00 | 0.00 | 0.00 | 78 | 1010.7 |
| 20260505030153 | 86 | 75 | 0.0 | 1.0 | 0.00 | 0.00 | 0.00 | 83 | 1010.7 |
| 20260505025649 | 86 | 331 | 2.0 | 3.0 | 0.00 | 0.00 | 0.00 | 85 | 1010.8 |
| 20260505025148 | 86 | 67 | 2.0 | 3.0 | 0.00 | 0.00 | 0.00 | 84 | 1010.7 |
| 20260505024645 | 86 | 285 | 2.0 | 2.0 | 0.00 | 0.00 | 0.00 | 83 | 1011.1 |
| 20260505024142 | 86 | 87 | 1.0 | 1.0 | 0.00 | 0.00 | 0.00 | 84 | 1010.6 |
| 20260505023640 | 86 | 350 | 3.0 | 3.0 | 0.00 | 0.00 | 0.00 | 82 | 1010.7 |
| 20260505023137 | 87 | 344 | 3.0 | 3.0 | 0.00 | 0.00 | 0.00 | 84 | 1010.9 |
| 20260505022634 | 88 | 137 | 2.0 | 2.0 | 0.00 | 0.00 | 0.00 | 82 | 1010.9 |
| 20260505022131 | 86 | 86 | 0.0 | 1.0 | 0.00 | 0.00 | 0.00 | 82 | 1011.0 |
| 20260505021628 | 87 | 88 | 0.0 | 0.0 | 0.00 | 0.00 | 0.00 | 82 | 1011.0 |
| 20260505021125 | 86 | 93 | 1.0 | 1.0 | 0.00 | 0.00 | 0.00 | 83 | 1010.9 |
| 20260505020620 | 85 | 333 | 3.0 | 3.0 | 0.00 | 0.00 | 0.00 | 84 | 1010.9 |
| 20260505020117 | 84 | 270 | 2.0 | 3.0 | 0.00 | 0.00 | 0.00 | 83 | 1010.6 |
| 20260505015614 | 84 | 353 | 3.0 | 3.0 | 0.00 | 0.00 | 0.00 | 87 | 1010.7 |
| 20260505015110 | 84 | 354 | 3.0 | 4.0 | 0.00 | 0.00 | 0.00 | 87 | 1010.8 |
| 20260505014607 | 84 | 293 | 2.0 | 2.0 | 0.00 | 0.00 | 0.00 | 87 | 1010.9 |
| 20260505014104 | 84 | 277 | 3.0 | 3.0 | 0.00 | 0.00 | 0.00 | 87 | 1010.7 |
| 20260505013601 | 84 | 351 | 3.0 | 4.0 | 0.00 | 0.00 | 0.00 | 86 | 1010.8 |
| 20260505013059 | 84 | 84 | 2.0 | 2.0 | 0.00 | 0.00 | 0.00 | 88 | 1010.9 |
| 20260505012556 | 83 | 34 | 5.0 | 6.0 | 0.00 | 0.00 | 0.00 | 86 | 1010.9 |
| 20260505012053 | 83 | 324 | 4.0 | 6.0 | 0.00 | 0.00 | 0.00 | 87 | 1010.8 |
| 20260505011549 | 84 | 28 | 3.0 | 4.0 | 0.00 | 0.00 | 0.00 | 85 | 1010.9 |
| 20260505011047 | 84 | 43 | 2.0 | 2.0 | 0.00 | 0.00 | 0.00 | 85 | 1010.7 |
| 20260505010542 | 83 | 85 | 0.0 | 0.0 | 0.00 | 0.00 | 0.00 | 86 | 1010.9 |
| 20260505010038 | 82 | 74 | 4.0 | 6.0 | 0.00 | 0.00 | 0.00 | 87 | 1010.7 |
| 20260505005535 | 83 | 89 | 2.0 | 2.0 | 0.00 | 0.00 | 0.00 | 88 | 1010.5 |
| 20260505005032 | 83 | 50 | 2.0 | 3.0 | 0.00 | 0.00 | 0.00 | 86 | 1010.9 |
| 20260505004529 | 82 | 93 | 0.0 | 0.0 | 0.00 | 0.00 | 0.00 | 87 | 1010.7 |
| 20260505004026 | 82 | 90 | 0.0 | 0.0 | 0.00 | 0.00 | 0.00 | 88 | 1010.7 |
| 20260505003523 | 82 | 71 | 2.0 | 2.0 | 0.00 | 0.00 | 0.00 | 89 | 1010.5 |
| 20260505003021 | 82 | 67 | 1.0 | 1.0 | 0.00 | 0.00 | 0.00 | 90 | 1010.8 |
| 20260505002520 | 82 | 63 | 2.0 | 3.0 | 0.00 | 0.00 | 0.00 | 89 | 1010.6 |
| 20260505002015 | 82 | 70 | 1.0 | 2.0 | 0.00 | 0.00 | 0.00 | 88 | 1010.8 |
| 20260505001512 | 81 | 79 | 1.0 | 2.0 | 0.00 | 0.00 | 0.00 | 88 | 1010.4 |
| 20260505001009 | 80 | 68 | 1.0 | 1.0 | 0.00 | 0.00 | 0.00 | 91 | 1010.4 |
| 20260505000506 | 79 | 70 | 1.0 | 2.0 | 0.00 | 0.00 | 0.00 | 93 | 1010.6 |
| 20260505000004 | 78 | 79 | 1.0 | 1.0 | 0.00 | 0.00 | 0.00 | 95 | 1010.4 |
| 20260504235500 | 78 | 72 | 1.0 | 1.0 | 0.00 | 0.00 | 0.00 | 96 | 1010.5 |
| 20260504234956 | 78 | 80 | 0.0 | 1.0 | 0.00 | 0.00 | 0.00 | 96 | 1010.3 |
| 20260504234454 | 78 | 84 | 0.0 | 1.0 | 0.00 | 0.00 | 0.00 | 95 | 1010.3 |
| 20260504233950 | 78 | 75 | 2.0 | 2.0 | 0.00 | 0.00 | 0.00 | 96 | 1010.2 |
| 20260504233446 | 77 | 59 | 2.0 | 2.0 | 0.00 | 0.00 | 0.00 | 97 | 1010.0 |
| 20260504232943 | 77 | 52 | 2.0 | 2.0 | 0.00 | 0.00 | 0.00 | 97 | 1009.9 |
| 20260504232440 | 77 | 79 | 0.0 | 0.0 | 0.00 | 0.00 | 0.00 | 97 | 1009.9 |
| 20260504231938 | 77 | 82 | 1.0 | 1.0 | 0.00 | 0.00 | 0.00 | 98 | 1009.8 |
| 20260504231433 | 77 | 86 | 2.0 | 2.0 | 0.00 | 0.00 | 0.00 | 98 | 1010.0 |
| 20260504230930 | 77 | 65 | 2.0 | 2.0 | 0.00 | 0.00 | 0.00 | 98 | 1009.8 |
| 20260504230427 | 77 | 79 | 1.0 | 2.0 | 0.00 | 0.00 | 0.00 | 98 | 1009.8 |
| 20260504225926 | 76 | 95 | 2.0 | 2.0 | 0.00 | 0.00 | 0.00 | 98 | 1009.7 |
| 20260504225422 | 76 | 94 | 0.0 | 0.0 | 0.00 | 0.00 | 0.00 | 98 | 1009.5 |
| 20260504224919 | 76 | 96 | 1.0 | 1.0 | 0.00 | 0.00 | 0.00 | 99 | 1009.5 |
| 20260504224416 | 76 | 93 | 2.0 | 2.0 | 0.00 | 0.00 | 0.00 | 99 | 1009.2 |
| 20260504223913 | 76 | 66 | 1.0 | 1.0 | 0.00 | 0.00 | 0.00 | 99 | 1009.3 |
| 20260504223409 | 76 | 99 | 1.0 | 1.0 | 0.00 | 0.00 | 0.00 | 99 | 1009.4 |
| 20260504222905 | 76 | 86 | 0.0 | 0.0 | 0.00 | 0.00 | 0.00 | 99 | 1009.5 |
| 20260504222402 | 76 | 90 | 1.0 | 1.0 | 0.00 | 0.00 | 0.00 | 99 | 1009.1 |
| 20260504221900 | 76 | 97 | 0.0 | 0.0 | 0.00 | 0.00 | 0.00 | 99 | 1009.3 |
| 20260504221356 | 76 | 88 | 0.0 | 1.0 | 0.00 | 0.00 | 0.00 | 99 | 1009.4 |
| 20260504220854 | 76 | 80 | 0.0 | 0.0 | 0.00 | 0.00 | 0.00 | 99 | 1009.6 |
| 20260504220350 | 76 | 79 | 1.0 | 1.0 | 0.00 | 0.00 | 0.00 | 99 | 1009.9 |
| 20260504215848 | 76 | 93 | 0.0 | 0.0 | 0.00 | 0.00 | 0.00 | 99 | 1009.7 |
| 20260504215344 | 76 | 99 | 0.0 | 1.0 | 0.00 | 0.00 | 0.00 | 99 | 1009.6 |
| 20260504214840 | 76 | 81 | 1.0 | 2.0 | 0.00 | 0.00 | 0.00 | 99 | 1009.5 |
| 20260504214337 | 76 | 48 | 2.0 | 3.0 | 0.00 | 0.00 | 0.00 | 99 | 1009.6 |
| 20260504213834 | 76 | 81 | 1.0 | 1.0 | 0.00 | 0.00 | 0.00 | 99 | 1009.6 |
| 20260504213330 | 76 | 95 | 0.0 | 0.0 | 0.00 | 0.00 | 0.00 | 99 | 1009.5 |
| 20260504212827 | 76 | 90 | 0.0 | 0.0 | 0.00 | 0.00 | 0.00 | 99 | 1009.5 |
| 20260504212323 | 76 | 85 | 0.0 | 0.0 | 0.00 | 0.00 | 0.00 | 99 | 1009.5 |
| 20260504211822 | 76 | 85 | 0.0 | 0.0 | 0.00 | 0.00 | 0.00 | 99 | 1009.9 |
| 20260504211317 | 76 | 97 | 1.0 | 1.0 | 0.00 | 0.00 | 0.00 | 99 | 1009.8 |
| 20260504210815 | 76 | 92 | 0.0 | 0.0 | 0.00 | 0.00 | 0.00 | 99 | 1009.8 |
| 20260504210312 | 76 | 89 | 0.0 | 0.0 | 0.00 | 0.00 | 0.00 | 99 | 1009.6 |
| 20260504205809 | 76 | 91 | 0.0 | 1.0 | 0.00 | 0.00 | 0.00 | 99 | 1009.4 |
| 20260504205306 | 76 | 117 | 1.0 | 2.0 | 0.00 | 0.00 | 0.00 | 99 | 1009.5 |
| 20260504204805 | 76 | 87 | 0.0 | 1.0 | 0.00 | 0.00 | 0.00 | 99 | 1009.5 |
| 20260504204303 | 76 | 79 | 0.0 | 0.0 | 0.00 | 0.00 | 0.00 | 99 | 1009.4 |
| 20260504203802 | 76 | 64 | 1.0 | 1.0 | 0.00 | 0.00 | 0.00 | 99 | 1009.4 |
| 20260504203258 | 76 | 96 | 0.0 | 0.0 | 0.00 | 0.00 | 0.00 | 99 | 1009.5 |
| 20260504202753 | 76 | 86 | 0.0 | 0.0 | 0.00 | 0.00 | 0.00 | 99 | 1009.3 |
| 20260504202250 | 76 | 84 | 0.0 | 0.0 | 0.00 | 0.00 | 0.00 | 99 | 1009.2 |
| 20260504201747 | 76 | 84 | 0.0 | 0.0 | 0.00 | 0.00 | 0.00 | 99 | 1009.2 |
| 20260504201244 | 75 | 86 | 0.0 | 0.0 | 0.00 | 0.00 | 0.00 | 99 | 1009.2 |
| 20260504200742 | 75 | 86 | 0.0 | 0.0 | 0.00 | 0.00 | 0.00 | 99 | 1009.2 |
| 20260504200238 | 75 | 88 | 0.0 | 0.0 | 0.00 | 0.00 | 0.00 | 99 | 1009.1 |
| 20260504195735 | 76 | 86 | 0.0 | 0.0 | 0.00 | 0.00 | 0.00 | 99 | 1009.2 |
| 20260504195230 | 76 | 102 | 0.0 | 0.0 | 0.00 | 0.00 | 0.00 | 99 | 1009.0 |
| 20260504194728 | 76 | 102 | 0.0 | 0.0 | 0.00 | 0.00 | 0.00 | 99 | 1009.1 |
| 20260504194223 | 76 | 107 | 0.0 | 0.0 | 0.00 | 0.00 | 0.00 | 99 | 1009.0 |
| 20260504193720 | 76 | 89 | 0.0 | 0.0 | 0.00 | 0.00 | 0.00 | 99 | 1008.9 |
| 20260504193218 | 76 | 86 | 0.0 | 0.0 | 0.00 | 0.00 | 0.00 | 99 | 1009.1 |
| 20260504192716 | 76 | 81 | 0.0 | 0.0 | 0.00 | 0.00 | 0.00 | 99 | 1009.0 |
| 20260504192213 | 77 | 90 | 0.0 | 0.0 | 0.00 | 0.00 | 0.00 | 99 | 1008.9 |
| 20260504191712 | 76 | 86 | 0.0 | 0.0 | 0.00 | 0.00 | 0.00 | 99 | 1008.8 |
| 20260504191209 | 76 | 84 | 0.0 | 0.0 | 0.00 | 0.00 | 0.00 | 99 | 1009.0 |
| 20260504190704 | 76 | 104 | 1.0 | 2.0 | 0.00 | 0.00 | 0.00 | 99 | 1008.8 |
| 20260504190200 | 76 | 111 | 1.0 | 1.0 | 0.00 | 0.00 | 0.00 | 99 | 1009.1 |
| 20260504185657 | 76 | 100 | 0.0 | 0.0 | 0.00 | 0.00 | 0.00 | 99 | 1008.9 |
| 20260504185153 | 76 | 89 | 0.0 | 0.0 | 0.00 | 0.00 | 0.00 | 99 | 1009.2 |
| 20260504184650 | 76 | 81 | 0.0 | 0.0 | 0.00 | 0.00 | 0.00 | 99 | 1009.3 |
| 20260504184145 | 76 | 71 | 1.0 | 1.0 | 0.00 | 0.00 | 0.00 | 99 | 1009.3 |
| 20260504183642 | 76 | 73 | 0.0 | 0.0 | 0.00 | 0.00 | 0.00 | 99 | 1009.4 |
| 20260504183139 | 77 | 91 | 0.0 | 0.0 | 0.00 | 0.00 | 0.00 | 99 | 1009.5 |
| 20260504182637 | 77 | 94 | 0.0 | 0.0 | 0.00 | 0.00 | 0.00 | 99 | 1009.5 |
| 20260504182134 | 77 | 87 | 0.0 | 0.0 | 0.00 | 0.00 | 0.00 | 99 | 1009.3 |
| 20260504181632 | 77 | 85 | 0.0 | 0.0 | 0.00 | 0.00 | 0.00 | 99 | 1009.6 |
| 20260504181129 | 77 | 80 | 0.0 | 0.0 | 0.00 | 0.00 | 0.00 | 99 | 1009.7 |
| 20260504180628 | 77 | 91 | 1.0 | 1.0 | 0.00 | 0.00 | 0.00 | 99 | 1009.5 |
| 20260504180127 | 77 | 84 | 0.0 | 0.0 | 0.00 | 0.00 | 0.00 | 99 | 1009.8 |
| 20260504175623 | 77 | 89 | 0.0 | 0.0 | 0.00 | 0.00 | 0.00 | 99 | 1009.8 |
| 20260504175120 | 77 | 77 | 0.0 | 0.0 | 0.00 | 0.00 | 0.00 | 98 | 1009.8 |
| 20260504174619 | 77 | 88 | 0.0 | 0.0 | 0.00 | 0.00 | 0.00 | 98 | 1010.0 |
| 20260504174114 | 77 | 82 | 1.0 | 1.0 | 0.00 | 0.00 | 0.00 | 98 | 1010.1 |
| 20260504173611 | 77 | 74 | 1.0 | 1.0 | 0.00 | 0.00 | 0.00 | 98 | 1010.3 |
| 20260504173109 | 77 | 88 | 0.0 | 0.0 | 0.00 | 0.00 | 0.00 | 98 | 1010.1 |
| 20260504172605 | 77 | 87 | 0.0 | 0.0 | 0.00 | 0.00 | 0.00 | 99 | 1010.2 |
| 20260504172102 | 77 | 69 | 1.0 | 1.0 | 0.00 | 0.00 | 0.00 | 99 | 1010.1 |
| 20260504171558 | 77 | 68 | 1.0 | 1.0 | 0.00 | 0.00 | 0.00 | 99 | 1010.2 |
| 20260504171056 | 77 | 87 | 0.0 | 0.0 | 0.00 | 0.00 | 0.00 | 98 | 1010.3 |
| 20260504170551 | 77 | 87 | 0.0 | 0.0 | 0.00 | 0.00 | 0.00 | 98 | 1010.2 |
| 20260504150924 | 80 | 108 | 1.0 | 2.0 | 0.00 | 0.12 | 0.12 | 92 | 1011.0 |
| 20260504150421 | 80 | 99 | 1.0 | 2.0 | 0.00 | 0.12 | 0.12 | 91 | 1011.3 |
| 20260504140847 | 81 | 112 | 1.0 | 1.0 | 0.00 | 0.12 | 0.12 | 89 | 1010.4 |
| 20260504140343 | 81 | 116 | 1.0 | 1.0 | 0.00 | 0.12 | 0.12 | 90 | 1010.5 |
| 20260504130812 | 81 | 91 | 0.0 | 0.0 | 0.00 | 0.12 | 0.12 | 89 | 1009.7 |
| 20260504130308 | 81 | 101 | 0.0 | 0.0 | 0.00 | 0.12 | 0.12 | 89 | 1009.8 |
| 20260504120232 | 81 | 121 | 1.0 | 1.0 | 0.00 | 0.12 | 0.12 | 88 | 1009.2 |